Muncie, IN

1:26 AM EST on December 12, 2017 (GMT -0500)
Delaware County-Johnson

Weather History for KMIE - February, 2011

Change the Weather History Date:

Thursday, February 24, 2011

  Actual Average Record
Temperature  
Mean Temperature 34 °F 32 °F  
Max Temperature 37 °F 41 °F 73 °F (2017)
Min Temperature 31 °F 24 °F -2 °F (1967)
Degree Days  
Heating Degree Days 31 33  
Month to date heating degree days 850 861  
Since 1 July heating degree days 4442 4254  
Cooling Degree Days 0 0  
Month to date cooling degree days 0 0  
Year to date cooling degree days 0 0  
Moisture  
Dew Point 32 °F    
Average Humidity 87    
Maximum Humidity 92    
Minimum Humidity 82    
Precipitation  
Precipitation 0.17 in 0.08 in 1.33 in (2016)
Month to date precipitation 0.91 1.97  
Year to date precipitation 1.76 4.20  
Sea Level Pressure  
Sea Level Pressure 29.96 in    
Wind  
Wind Speed 9 mph (NE)    
Max Wind Speed 23 mph    
Max Gust Speed 30 mph    
Visibility 3 miles    
Events Snow    
T = Trace of Precipitation, MM = Missing Value Source: NWS Daily Summary

Daily Weather History Graph

Daily Weather History Graph

Search for Another Location

Airport or City:

Trip Planner

Search our weather history database for the weather conditions in past years. The results will help you decide how hot, cold, wet, or windy it might be!

Date:

Astronomy

Feb. 24, 2011 Rise Set
Actual Time 7:22 AM EST 6:27 PM EST
Civil Twilight 6:55 AM EST 6:54 PM EST
Nautical Twilight 6:23 AM EST 7:26 PM EST
Astronomical Twilight 5:52 AM EST 7:57 PM EST
Moon 1:20 AM EST (2/24) 10:55 AM EST (2/24)
Length of Visible Light 11h 59m
Length of Day
11h 04m
Waning Gibbous, 53% of the Moon is Illuminated
Feb 24
Waning Gibbous
Feb 24
Last Quarter
Mar 4
New
Mar 12
First Quarter
Mar 19
Full

Hourly Weather History & Observations

Time (EST) Temp. Windchill Dew Point Humidity Pressure Visibility Wind Dir Wind Speed Gust Speed Precip Events Conditions
12:53 AM 36.0 °F 29.0 °F 30.9 °F 82% 30.04 in 8.0 mi SSW 9.2 mph - 0.04 in   Overcast
1:53 AM 36.0 °F 30.3 °F 33.1 °F 89% 30.03 in 7.0 mi South 6.9 mph - 0.05 in   Overcast
2:53 AM 37.0 °F 31.6 °F 33.1 °F 86% 30.01 in 6.0 mi South 6.9 mph - 0.03 in   Overcast
3:53 AM 37.0 °F - 34.0 °F 89% 30.01 in 5.0 mi Calm Calm - 0.03 in   Overcast
4:11 AM 35.6 °F 29.2 °F 33.8 °F 93% 30.00 in 4.0 mi NNW 8.1 mph - N/A   Overcast
4:53 AM 35.1 °F - 33.1 °F 92% 30.01 in 3.0 mi Calm Calm - 0.01 in   Overcast
5:53 AM 35.1 °F - 34.0 °F 96% 30.02 in 2.5 mi Calm Calm - 0.01 in   Overcast
6:00 AM 35.6 °F - 33.8 °F 93% 30.01 in 3.0 mi Calm Calm - N/A   Overcast
6:29 AM 33.8 °F - 33.8 °F 100% 30.01 in 2.5 mi Calm Calm - N/A   Overcast
6:39 AM 35.6 °F - 33.8 °F 93% 30.01 in 3.0 mi Calm Calm - 0.01 in   Overcast
6:53 AM 35.1 °F - 33.1 °F 92% 30.02 in 4.0 mi Calm Calm - 0.01 in   Overcast
7:46 AM 35.6 °F - 33.8 °F 93% 30.01 in 2.5 mi Calm Calm - N/A   Overcast
8:02 AM 35.6 °F 32.8 °F 33.8 °F 93% 30.02 in 3.0 mi WNW 3.5 mph - N/A   Overcast
8:18 AM 35.6 °F 31.7 °F 33.8 °F 93% 30.03 in 3.0 mi NW 4.6 mph - N/A   Overcast
8:53 AM 36.0 °F 33.3 °F 34.0 °F 93% 30.06 in 3.0 mi WNW 3.5 mph - N/A   Overcast
9:31 AM 35.6 °F - 33.8 °F 93% 30.05 in 3.0 mi Calm Calm - N/A   Overcast
9:51 AM 35.6 °F 30.7 °F 33.8 °F 93% 30.04 in 2.5 mi NNW 5.8 mph - N/A   Overcast
9:53 AM 36.0 °F 31.1 °F 33.1 °F 89% 30.05 in 2.5 mi NNW 5.8 mph - N/A   Overcast
10:09 AM 35.6 °F 29.9 °F 33.8 °F 93% 30.03 in 2.5 mi North 6.9 mph - N/A   Overcast
10:48 AM 35.6 °F 27.5 °F 33.8 °F 93% 30.03 in 3.0 mi NNE 11.5 mph - N/A   Overcast
10:53 AM 36.0 °F 29.6 °F 33.1 °F 89% 30.05 in 3.0 mi North 8.1 mph - N/A   Overcast
11:14 AM 35.6 °F 28.6 °F 33.8 °F 93% 30.03 in 2.5 mi North 9.2 mph - N/A   Overcast
11:53 AM 36.0 °F 29.0 °F 33.1 °F 89% 30.05 in 2.5 mi NE 9.2 mph - N/A   Overcast
12:00 PM 35.6 °F 29.2 °F 33.8 °F 93% 30.03 in 3.0 mi NE 8.1 mph - N/A   Overcast
12:35 PM 35.6 °F 28.6 °F 32.0 °F 87% 30.02 in 2.5 mi NNE 9.2 mph - N/A   Overcast
12:53 PM 35.1 °F 27.4 °F 33.1 °F 92% 30.03 in 2.5 mi NNE 10.4 mph - N/A   Overcast
1:39 PM 35.6 °F 27.5 °F 32.0 °F 87% 30.00 in 3.0 mi NE 11.5 mph - N/A   Overcast
1:53 PM 35.1 °F 27.4 °F 32.0 °F 89% 30.00 in 3.0 mi NE 10.4 mph - N/A   Overcast
2:25 PM 35.6 °F 29.2 °F 33.8 °F 93% 29.99 in 2.5 mi NE 8.1 mph - N/A   Overcast
2:53 PM 35.1 °F 27.9 °F 32.0 °F 89% 29.99 in 3.0 mi NE 9.2 mph - N/A   Overcast
3:53 PM 35.1 °F 25.9 °F 32.0 °F 89% 29.94 in 4.0 mi NE 13.8 mph - N/A   Overcast
4:36 PM 33.8 °F 25.8 °F 30.2 °F 87% 29.94 in 3.0 mi NE 10.4 mph - N/A   Overcast
4:53 PM 34.0 °F 28.0 °F 30.9 °F 89% 29.96 in 3.0 mi ENE 6.9 mph - N/A   Overcast
5:20 PM 33.8 °F 25.8 °F 30.2 °F 87% 29.94 in 3.0 mi ENE 10.4 mph - N/A   Overcast
5:53 PM 34.0 °F 25.5 °F 30.0 °F 85% 29.94 in 3.0 mi ENE 11.5 mph - N/A   Overcast
6:11 PM 33.8 °F 24.8 °F 30.2 °F 87% 29.90 in 2.5 mi ENE 12.7 mph - N/A   Overcast
6:31 PM 33.8 °F 25.3 °F 30.2 °F 87% 29.89 in 4.0 mi ENE 11.5 mph - N/A   Overcast
6:53 PM 33.1 °F 24.4 °F 30.0 °F 89% 29.92 in 4.0 mi NE 11.5 mph - N/A   Overcast
7:26 PM 33.8 °F 23.9 °F 30.2 °F 87% 29.92 in 4.0 mi NE 15.0 mph 19.6 mph N/A   Overcast
7:53 PM 33.1 °F 22.6 °F 30.0 °F 89% 29.90 in 4.0 mi NE 16.1 mph - N/A   Overcast
8:53 PM 32.0 °F 22.1 °F 28.9 °F 88% 29.87 in 6.0 mi ENE 13.8 mph - N/A   Overcast
9:53 PM 33.1 °F 22.6 °F 28.9 °F 85% 29.84 in 6.0 mi ENE 16.1 mph 26.5 mph N/A   Overcast
10:41 PM 32.0 °F 20.5 °F 28.4 °F 87% 29.77 in 1.8 mi ENE 18.4 mph 25.3 mph 0.00 in Snow Light Snow
10:53 PM 32.0 °F 20.1 °F 28.9 °F 88% 29.79 in 1.0 mi ENE 19.6 mph 25.3 mph 0.00 in Snow Light Snow
11:25 PM 32.0 °F 19.8 °F 28.4 °F 87% 29.72 in 1.0 mi East 20.7 mph 26.5 mph 0.00 in Snow Light Snow
11:44 PM 30.2 °F 18.5 °F 28.4 °F 93% 29.71 in 1.0 mi East 17.3 mph 25.3 mph 0.00 in Snow Light Snow
11:53 PM 30.9 °F 18.4 °F 28.9 °F 92% 29.68 in 1.0 mi East 20.7 mph 26.5 mph 0.00 in Snow Light Snow